Temp
7 8 8 7 8 8 8 8 8 8 8 8 8 8 8 8 8 8 8 8 8 8 8 8 8 8 8 8 8 8 8 9 11 8 10 18 21 21 20 20 21 20 19 20 19 19 19 19 19 19 20 20 19 20 20 20 21 22 22 21 21 20 21 22 23 24 23 24 25 25 24 24 26 25 24 24 23 21 21 20 18 18 18 19 20 19 19 18
7 7 8 7 8 8 8 8 8 8 8 8 8 8 8 8 8 8 8 8 8 8 8 8 8 8 8 8 8 8 9 9 9 9 14 22 22 21 21 20 20 20 20 19 19 19 19 20 19 19 20 20 19 20 21 21 21 22 21 20 21 21 22 22 23 24 24 24 25 24 24 24 25 25 24 25 23 22 22 20 18 18 18 18 18 18 18 18
7 7 7 7 7 7 8 8 8 8 8 8 8 8 8 8 8 8 8 8 8 8 8 8 8 8 8 8 8 8 9 8 12 16 21 23 22 22 21 20 20 20 20 19 20 20 20 20 19 19 21 20 19 20 21 21 21 21 21 21 22 22 22 22 23 24 24 23 24 25 24 24 25 25 25 25 23 23 23 21 20 19 18 19 18 18 18 18
7 7 7 7 7 7 7 8 8 8 8 8 8 8 8 8 8 8 8 8 8 8 8 8 8 8 8 8 8 9 8 11 18 22 22 22 22 22 21 20 20 19 20 20 20 20 20 20 19 20 21 21 20 20 21 21 21 21 21 22 22 21 22 23 24 24 24 23 23 24 24 25 26 25 25 24 23 24 23 23 23 21 18 19 19 18 18 18
7 7 7 7 7 7 7 8 8 8 8 8 8 8 8 8 8 8 8 8 8 8 8 8 8 8 8 8 9 8 10 17 22 22 22 23 23 22 21 20 20 19 19 20 20 20 20 19 20 20 21 21 20 21 21 21 22 22 21 22 23 21 22 24 24 24 24 23 24 24 24 25 25 25 24 24 26 26 24 23 22 19 18 19 18 18 18 18
7 7 7 7 7 7 7 7 8 8 7 8 8 8 8 8 8 8 8 8 8 8 8 8 8 8 8 9 9 9 13 20 21 21 23 22 22 22 21 20 20 19 19 20 20 19 20 19 20 21 20 21 20 21 21 21 21 22 22 22 23 22 22 24 24 24 24 23 24 24 24 25 25 26 24 24 26 24 21 21 20 18 18 18 18 18 18 18
7 7 7 7 7 7 7 7 7 7 7 8 8 8 8 8 8 8 8 8 8 8 8 8 8 8 8 9 10 10 14 19 21 22 23 22 23 22 21 21 20 19 19 19 19 19 20 20 21 20 20 21 20 21 22 21 21 22 22 22 23 22 22 24 24 23 23 23 24 24 24 24 25 25 23 23 22 20 19 19 18 18 18 18 18 18 19 18
7 7 7 7 7 7 7 7 7 7 7 8 8 7 8 8 8 8 8 8 8 8 8 7 7 7 9 10 11 13 15 19 22 22 22 22 22 22 21 20 19 19 19 19 19 19 20 20 20 20 21 21 20 21 21 21 21 21 22 22 23 22 23 24 23 23 22 22 23 22 23 24 24 24 23 22 20 19 19 18 18 18 18 18 18 18 18 17
7 7 7 7 7 7 7 7 7 7 7 7 8 7 8 8 8 8 8 8 8 8 8 8 7 8 9 9 11 16 19 21 22 22 22 22 22 22 22 20 19 19 19 19 19 19 19 20 20 20 21 21 20 21 21 22 22 22 22 22 23 23 24 23 23 24 23 22 22 22 24 25 23 23 24 20 18 19 18 18 18 18 18 18 18 18 17 17
7 7 7 7 7 7 7 7 7 7 7 7 8 7 8 8 8 8 7 7 8 8 8 8 8 8 9 9 12 18 21 22 22 22 22 22 22 22 21 20 20 19 18 18 18 19 20 20 20 20 21 20 20 21 21 22 22 22 22 22 23 23 22 22 23 24 22 22 23 23 25 25 22 23 25 20 18 19 18 18 18 18 18 18 18 17 17 16
7 7 7 7 7 7 7 7 7 7 7 8 7 7 8 8 8 7 7 7 7 8 8 7 8 8 8 10 13 18 21 21 21 21 21 21 22 21 21 21 20 19 18 18 18 19 20 19 19 20 21 21 21 21 21 22 22 22 22 23 23 22 22 23 23 23 22 23 23 23 25 24 22 24 24 20 18 18 18 18 18 18 18 17 17 17 17 17
9 8 8 7 7 7 7 7 7 7 8 8 8 8 8 9 8 7 7 7 8 8 8 7 8 8 8 10 13 18 21 21 21 21 20 20 21 21 21 21 21 20 19 18 18 19 20 20 20 21 21 20 21 21 22 22 22 23 22 23 24 23 24 24 24 23 22 24 23 23 24 23 23 24 22 19 18 18 18 18 18 18 18 17 17 16 17 17
10 10 9 8 8 8 8 8 8 8 8 8 8 9 9 8 8 7 7 7 8 8 8 8 8 7 9 13 16 19 21 21 20 20 20 20 20 20 20 20 20 20 20 20 19 19 20 20 21 21 21 20 21 21 22 22 22 22 21 22 23 23 24 24 23 22 23 25 24 23 23 23 25 24 20 18 18 18 18 18 18 18 17 17 17 16 16 16
11 11 11 10 9 9 10 10 9 10 10 10 10 9 9 8 8 7 7 8 8 8 8 8 8 8 9 15 19 20 20 20 20 20 20 20 20 20 19 19 20 20 20 20 20 20 20 20 20 20 20 20 21 21 22 22 21 22 21 21 21 21 23 24 23 22 24 24 24 24 22 23 26 24 20 19 18 19 19 19 18 18 17 17 16 16 16 16
12 12 12 12 11 10 10 11 11 11 10 11 10 10 10 9 9 8 7 8 8 8 8 8 8 8 10 14 18 19 19 20 20 21 21 20 20 20 19 19 19 19 19 19 20 20 20 20 20 20 20 20 21 21 22 22 21 21 21 21 20 20 22 24 23 22 24 24 23 24 22 22 25 23 20 19 19 19 19 19 18 18 18 17 16 16 16 16
12 12 12 12 12 12 11 11 11 12 11 11 11 11 11 10 9 8 8 7 8 8 8 8 8 8 12 17 19 19 19 20 21 22 21 20 21 21 20 19 19 19 19 19 20 20 20 20 20 20 21 21 21 22 21 21 21 20 20 21 21 21 21 23 23 22 23 24 23 24 23 23 24 22 20 19 19 19 19 19 18 18 18 17 17 16 16 16
12 12 12 12 12 12 12 11 11 12 12 12 12 12 11 10 9 9 8 8 8 8 8 9 8 9 14 18 19 20 20 20 21 22 21 21 21 21 20 19 19 19 19 19 20 20 20 20 20 20 20 20 20 21 21 20 21 20 20 21 20 20 21 22 23 22 22 23 23 24 23 24 22 20 19 20 20 19 19 19 19 18 18 17 17 16 16 16
12 12 12 12 12 12 12 12 11 12 12 12 12 12 12 10 9 9 8 8 8 8 9 9 9 12 17 19 19 20 20 21 21 21 21 20 21 21 21 20 20 20 20 20 20 20 20 20 19 20 20 19 20 21 21 20 21 21 20 21 20 20 20 21 22 23 22 22 23 23 23 23 21 19 19 20 20 19 19 19 19 18 18 18 17 17 16 16
12 12 12 12 12 12 12 12 12 12 13 13 12 11 11 10 9 9 8 8 10 13 15 13 13 17 20 19 20 20 21 22 21 21 21 20 21 20 21 21 21 21 21 21 21 20 21 20 20 20 21 20 21 21 21 21 21 21 21 21 20 20 21 21 22 22 21 21 22 22 23 23 21 19 19 20 19 19 19 19 19 18 18 18 17 17 16 16
12 12 12 12 13 13 12 12 13 13 13 12 11 10 12 13 13 13 10 9 12 15 18 16 15 18 19 19 20 20 21 21 21 21 21 21 21 20 20 21 21 21 21 21 21 20 20 21 20 21 21 21 22 20 20 20 20 21 20 20 20 20 21 22 23 22 20 21 22 21 23 24 21 18 19 19 19 19 19 19 19 18 18 18 18 17 17 16
12 12 12 12 13 13 13 12 12 13 13 12 11 12 16 16 16 16 14 13 13 13 16 16 16 17 18 19 19 20 20 20 21 21 21 21 21 20 20 20 20 21 19 19 20 19 20 20 20 21 21 21 20 19 19 19 20 20 20 20 20 20 21 22 23 22 20 22 21 19 22 23 20 19 18 18 19 19 19 19 19 19 18 18 18 17 17 17
11 12 12 13 13 13 13 12 12 12 12 11 10 12 15 17 17 17 16 16 15 14 14 15 15 16 17 18 18 20 19 19 21 21 20 21 21 21 20 20 21 20 18 19 20 20 20 20 21 21 18 18 18 17 18 20 20 20 19 20 21 20 21 22 22 21 19 22 22 20 22 22 20 19 18 18 19 19 18 18 18 18 18 18 18 18 17 17
11 11 12 12 13 13 13 12 12 12 12 11 10 11 15 17 17 17 16 16 16 16 16 15 15 16 16 17 18 19 19 19 20 21 20 21 21 20 20 20 20 20 19 19 20 20 20 20 21 19 17 18 19 17 18 19 19 20 19 20 21 20 20 22 22 21 19 20 21 21 22 22 21 19 19 18 19 19 18 18 18 17 18 18 18 18 17 17
11 11 12 12 13 13 13 13 12 12 12 11 11 14 16 17 16 16 16 16 17 17 17 16 16 16 17 18 19 19 19 19 20 21 21 21 21 20 21 20 20 20 19 20 20 20 21 20 19 18 18 20 20 18 18 19 20 20 20 20 21 22 22 22 21 21 20 19 20 22 22 22 22 21 20 19 19 19 18 18 18 17 17 17 17 17 17 17
11 11 11 12 13 14 14 13 12 12 12 12 14 16 17 17 16 16 16 16 17 17 18 17 17 18 19 19 19 19 20 20 21 21 21 21 21 20 21 20 20 20 20 19 19 20 21 20 18 19 19 19 20 20 19 20 20 20 20 21 22 23 22 22 21 21 22 21 19 20 21 21 22 22 21 20 20 19 18 18 18 17 17 17 17 17 17 17
10 10 11 12 12 14 14 13 12 11 12 14 17 17 17 17 17 16 16 16 16 18 19 18 18 20 21 19 19 20 20 21 21 21 21 22 22 22 21 20 20 21 19 19 19 20 21 19 18 20 20 19 20 20 19 19 20 21 21 20 21 22 22 22 22 21 21 21 19 18 21 21 21 23 21 19 20 19 18 18 18 18 17 17 17 17 17 17
10 10 11 11 12 12 12 13 13 12 14 17 18 17 18 18 17 17 17 16 17 19 19 19 19 20 21 19 20 21 21 21 22 21 21 22 22 22 21 20 20 20 19 19 20 20 20 20 19 20 20 19 20 21 20 19 21 21 20 19 21 23 23 22 23 22 20 20 19 19 20 21 20 22 20 18 20 20 19 18 18 18 18 17 17 17 16 17
10 11 10 11 11 10 10 11 11 12 16 18 17 18 18 18 17 18 17 16 18 20 20 20 20 21 21 20 21 22 22 22 22 21 21 22 23 22 21 21 21 21 20 20 21 20 20 21 21 21 21 20 21 22 20 19 22 22 19 18 20 21 21 21 22 22 19 20 21 20 20 20 20 21 20 19 20 21 20 20 19 18 18 17 17 17 17 17
11 11 10 10 11 11 11 10 10 13 17 18 17 18 18 18 18 18 16 16 19 21 20 21 21 21 21 20 21 22 22 22 22 21 21 22 22 22 21 21 21 21 20 20 21 21 20 21 21 22 22 22 22 21 18 21 23 20 18 18 19 19 19 20 21 21 20 20 21 20 19 20 20 20 21 20 21 21 21 20 19 19 18 18 17 17 17 16
11 11 11 10 10 10 10 9 12 16 17 17 18 18 18 18 18 17 15 17 19 20 21 21 21 21 21 20 20 21 21 22 22 21 22 22 22 22 21 20 21 21 20 19 21 21 20 19 19 21 22 22 22 19 17 19 20 19 19 20 20 20 20 20 19 20 21 20 20 19 18 20 20 20 20 20 20 19 19 20 20 18 18 18 17 17 17 17
11 12 12 10 9 10 10 11 15 17 17 17 18 18 18 18 16 15 16 18 19 20 20 21 21 21 21 20 20 21 21 21 22 22 22 21 21 22 21 20 21 21 20 20 21 20 20 20 20 21 21 21 22 20 18 18 18 19 22 21 21 20 20 20 20 20 20 20 20 18 17 19 21 20 19 18 18 17 17 19 20 18 17 18 17 17 17 17
12 13 12 12 10 9 11 14 17 16 16 17 16 17 18 17 15 15 17 18 19 20 20 20 20 20 20 20 21 21 21 21 22 22 21 21 21 21 21 21 21 20 19 20 20 20 21 22 21 21 21 21 23 22 20 19 19 21 21 21 20 20 19 20 19 19 19 20 19 17 17 19 20 19 18 17 17 17 15 16 16 15 16 17 17 17 17 17
12 13 13 13 12 11 13 16 16 15 16 16 16 17 17 15 15 16 17 18 19 19 19 19 20 20 19 20 21 21 21 21 21 22 21 21 20 20 20 20 20 21 20 18 19 20 21 21 21 22 22 21 22 22 21 21 21 21 21 21 20 19 19 19 17 17 18 19 18 16 18 20 20 19 18 17 17 16 15 14 14 14 15 16 16 16 16 16
13 13 13 14 13 14 16 16 15 15 15 15 16 16 15 15 16 16 16 17 18 19 19 19 19 19 19 20 21 21 21 21 21 21 21 20 20 20 20 19 19 21 20 18 18 19 20 20 21 23 22 21 23 23 22 22 21 20 20 20 21 20 20 19 18 19 19 19 18 17 19 20 20 19 17 17 17 16 15 14 14 14 14 15 15 15 15 15
14 13 13 13 14 16 16 15 14 14 14 14 16 15 14 15 15 16 17 17 18 18 19 19 19 19 20 19 20 20 21 21 20 20 20 20 20 20 20 20 19 20 20 19 18 18 19 20 21 21 20 21 23 21 21 22 21 18 17 20 20 20 21 18 17 17 18 18 18 18 18 18 18 18 17 17 17 16 15 15 15 15 14 14 14 14 14 14
14 14 13 13 14 15 15 15 14 13 14 15 15 14 14 16 16 16 17 18 18 18 18 19 19 19 19 19 19 20 20 20 20 20 20 19 19 19 20 20 20 20 21 20 19 18 19 20 21 20 20 21 21 21 21 22 21 18 18 20 19 18 20 19 16 15 16 19 18 16 17 18 17 18 18 17 17 16 15 15 15 15 15 15 15 15 15 15
12 12 12 13 14 14 13 15 13 12 14 15 15 14 14 16 16 16 17 18 18 18 18 18 19 19 19 19 19 19 20 20 20 20 19 19 20 19 20 21 20 20 22 21 20 19 19 20 20 20 21 21 19 20 21 20 20 20 20 20 18 17 19 19 18 16 16 19 18 15 17 17 18 19 18 18 18 16 16 15 15 16 16 16 16 16 16 15
9 9 11 12 13 13 13 14 13 12 14 15 14 14 13 15 16 16 17 18 17 18 17 17 18 19 18 19 19 19 20 20 19 19 19 19 19 19 20 21 20 20 20 21 21 19 19 21 20 19 20 20 19 21 21 19 19 20 20 19 19 19 20 19 19 18 18 18 17 16 15 16 18 19 18 18 18 17 16 15 15 16 16 16 15 15 15 14
8 10 12 12 12 12 12 12 12 13 15 14 14 14 14 15 16 16 17 17 17 17 17 17 18 18 18 19 19 19 19 19 19 18 18 19 19 19 19 20 21 19 18 20 21 18 18 19 20 19 19 19 20 21 21 20 19 19 19 19 18 19 19 19 18 18 19 17 16 17 16 17 19 18 18 19 18 17 16 16 15 15 15 15 14 14 14 13
8 12 14 12 12 12 11 12 13 14 15 13 13 14 14 15 16 16 17 17 17 18 17 17 17 17 18 18 18 19 19 19 19 18 18 18 19 19 19 19 20 19 18 20 19 18 18 18 20 20 19 19 20 19 19 20 20 20 20 20 19 18 17 18 18 16 18 18 17 17 17 18 18 17 18 19 18 17 16 15 15 14 14 14 14 14 14 13
8 13 13 12 12 11 11 13 14 14 14 12 12 14 14 15 16 17 17 17 17 18 17 17 17 17 18 18 18 19 19 18 18 18 18 18 18 19 19 19 20 20 19 20 20 19 19 19 19 20 19 19 19 17 17 18 19 20 20 19 19 18 18 19 18 15 16 18 17 17 18 19 18 16 16 17 16 16 15 14 15 14 14 14 13 13 13 13
9 13 13 12 12 12 12 14 13 12 14 13 13 15 15 16 16 16 17 17 16 17 17 17 18 17 17 17 18 19 18 18 18 18 18 18 18 19 18 18 19 20 20 20 19 18 18 19 19 19 18 18 18 17 16 16 17 18 18 16 17 18 19 21 20 17 16 16 15 16 19 19 16 14 14 15 15 15 15 15 15 14 14 14 13 13 13 13
11 12 13 12 12 13 13 14 13 13 14 14 14 15 16 16 16 17 17 16 16 17 17 17 17 17 17 17 17 18 18 18 18 18 19 19 18 18 17 17 18 19 20 20 18 17 17 18 18 18 18 18 18 19 17 16 16 18 17 15 15 16 17 18 18 17 17 16 16 17 18 18 16 13 13 14 15 15 15 15 14 14 14 14 13 13 13 13
9 9 11 12 13 14 13 12 12 12 13 14 14 15 15 16 16 16 16 16 15 15 15 16 16 16 16 16 16 16 16 17 17 17 18 18 18 18 17 17 18 19 19 19 19 19 19 18 18 17 17 17 18 18 18 18 17 17 16 15 14 15 15 16 16 16 18 17 17 18 19 18 16 13 13 14 15 16 15 14 14 14 14 14 14 14 13 13
9 10 10 11 12 12 11 10 10 11 12 13 13 14 14 15 15 15 15 14 14 13 14 15 15 14 14 15 15 15 14 16 17 16 16 17 17 18 17 16 17 17 17 17 18 19 18 16 17 18 17 16 17 17 17 17 16 16 16 16 15 14 15 17 17 18 19 16 15 19 19 17 15 14 14 14 15 15 15 14 14 14 14 14 14 14 13 13
10 10 10 10 10 10 10 10 9 10 11 12 12 12 12 13 14 14 14 14 13 13 13 12 12 13 14 15 15 15 14 15 16 15 15 15 16 17 16 16 17 16 17 17 17 18 17 14 15 17 18 17 17 16 15 16 16 16 16 17 16 14 15 17 18 19 18 15 16 17 17 17 15 14 13 13 14 14 14 14 14 14 14 13 13 13 13 13
10 9 7 9 10 9 10 9 8 9 10 10 12 12 11 11 13 14 14 14 13 13 12 12 11 13 14 14 15 15 13 14 15 14 13 13 15 15 16 17 17 16 17 18 16 17 17 15 13 15 15 15 15 15 15 16 16 16 16 17 16 15 16 17 18 17 16 16 17 15 14 16 15 12 11 12 12 13 13 13 13 13 13 13 13 13 13 13
9 8 7 7 8 8 8 8 8 9 9 10 11 11 10 11 12 12 13 13 13 13 13 12 11 11 11 12 14 14 13 13 14 13 13 13 14 15 16 17 16 15 17 17 16 17 17 15 13 14 14 13 14 15 15 15 15 14 15 15 16 16 17 18 17 14 14 18 18 14 13 14 12 10 10 10 10 11 11 10 10 11 12 12 13 13 13 13
8 8 7 7 8 8 8 8 8 9 9 9 10 10 9 10 11 11 12 13 13 13 12 12 11 11 10 11 13 13 11 13 13 12 12 13 13 14 15 16 16 15 16 17 16 16 16 15 13 14 14 13 14 15 15 15 14 14 13 13 13 14 14 15 13 11 12 15 13 12 13 11 9 9 9 9 9 9 9 9 9 10 10 12 13 13 13 12
7 7 7 8 8 8 8 8 8 8 9 8 8 9 9 9 10 11 11 11 12 12 12 12 11 11 11 11 12 12 11 12 13 12 12 12 13 14 14 14 15 15 15 16 15 15 16 15 13 14 14 13 13 14 13 14 15 14 12 11 12 13 13 12 12 10 12 12 10 11 13 10 9 9 8 8 9 9 9 9 8 8 8 10 12 12 12 12
5 5 5 7 8 7 7 8 8 8 8 7 7 8 9 9 10 11 11 10 10 10 10 11 11 11 11 12 12 12 11 11 12 12 12 12 13 13 13 13 13 14 15 15 15 16 16 14 13 14 14 12 12 13 13 14 14 14 13 12 11 12 12 11 10 9 10 12 11 13 13 10 9 9 8 8 8 8 8 8 8 8 8 8 9 9 9 10
4 5 4 6 8 7 6 8 8 8 8 6 6 7 8 9 10 10 11 11 10 10 9 10 11 11 12 12 12 11 11 11 12 12 11 12 12 12 13 13 12 13 14 14 14 14 14 14 14 14 14 13 12 12 12 13 14 14 12 10 9 10 10 10 9 7 7 9 12 13 12 9 9 9 8 8 8 8 8 8 8 8 8 8 8 8 8 8
Height
782 782 781 780 779 778 777 777 777 776 776 775 775 774 773 773 772 772 771 770 770 769 768 767 766 765 764 762 761 759 757 755 753 753 751 742 738 741 741 742 743 744 746 747 749 750 751 752 752 753 753 755 757 757 757 757 758 759 768 774 776 781 777 769 769 765 763 760 756 755 755 757 756 753 750 749 753 756 757 758 759 757 755 754 755 755 758 763
781 781 780 779 777 777 776 776 776 775 775 774 774 773 773 772 771 771 770 770 769 768 768 767 766 764 763 762 761 759 756 755 753 750 744 738 738 740 740 742 743 744 746 747 748 749 751 752 752 753 754 757 758 758 758 758 758 762 772 776 774 776 770 764 763 760 760 760 757 755 756 756 754 753 751 753 759 757 758 762 762 762 760 758 757 758 760 764
780 780 779 778 776 776 775 775 775 774 774 773 773 772 772 771 771 770 769 769 768 768 767 766 765 764 763 762 761 758 757 755 751 744 738 736 737 738 740 741 743 744 746 747 748 749 750 751 751 753 755 758 760 759 759 759 760 763 769 773 771 769 766 763 761 757 757 758 758 756 755 754 751 750 750 754 760 759 759 761 761 764 764 761 760 760 762 766
779 779 778 776 775 775 774 774 774 773 773 772 772 771 771 770 770 770 769 768 768 767 766 765 765 763 763 761 760 758 757 755 746 738 737 737 737 737 739 741 742 744 746 747 748 749 749 750 751 753 756 759 761 760 761 760 761 763 766 768 765 765 766 761 758 755 755 758 758 756 756 754 749 748 750 754 759 760 758 754 753 758 761 760 761 762 764 768
779 778 776 775 774 774 773 773 773 772 771 771 771 770 770 769 769 769 768 768 767 766 765 765 764 763 762 761 760 758 757 754 743 736 737 737 737 738 739 741 743 744 746 747 748 749 750 751 752 754 757 760 762 761 762 760 759 763 763 762 760 763 764 757 756 756 755 756 756 756 757 753 749 750 752 752 755 755 753 749 748 752 756 757 759 762 765 768
778 777 775 774 773 773 772 772 772 771 770 770 770 769 769 769 768 768 768 767 767 766 765 764 764 763 761 760 759 758 757 751 741 737 737 737 737 738 739 741 743 745 746 747 748 750 750 752 753 756 758 761 763 762 761 759 759 763 761 759 758 760 760 755 754 755 754 755 754 754 754 751 751 752 753 752 752 751 749 747 748 752 755 756 758 761 765 768
778 776 774 773 772 772 771 771 770 770 769 769 769 768 768 768 768 767 767 766 766 765 765 764 763 762 761 760 759 758 758 748 738 737 737 737 738 738 739 741 743 744 746 747 748 750 751 753 754 757 759 761 763 761 759 759 759 763 763 758 756 758 758 754 753 754 755 754 752 751 752 751 752 754 755 754 752 751 749 748 750 753 756 758 760 762 765 768
777 776 774 773 772 771 770 769 769 768 768 768 768 767 767 767 767 767 766 766 766 765 764 763 763 762 761 760 759 758 756 744 736 737 736 737 738 738 739 741 743 744 745 747 748 750 751 753 754 757 759 760 762 760 758 760 761 763 762 758 756 756 754 752 753 753 753 753 750 752 753 750 750 753 755 755 755 752 751 751 752 754 757 760 762 763 766 768
777 776 774 772 771 770 769 768 767 767 767 767 767 766 766 766 766 766 766 765 765 765 764 763 763 762 761 761 761 756 746 738 735 736 736 737 737 738 739 740 743 744 745 747 748 750 751 753 754 754 757 759 760 759 757 760 762 759 758 757 755 754 751 751 752 749 751 751 750 753 752 747 749 752 754 756 755 753 753 753 754 756 759 762 763 764 766 767
777 775 773 771 770 769 768 767 766 766 766 766 766 766 765 765 765 765 765 764 764 764 764 764 763 762 762 761 761 754 739 735 736 735 736 736 737 738 739 740 742 743 745 747 748 749 750 750 751 751 754 758 759 759 758 759 759 755 756 756 754 753 752 751 750 748 750 750 748 751 750 748 750 751 753 756 754 752 753 756 757 758 760 762 764 766 767 768
776 775 773 771 769 768 767 766 765 765 765 765 765 765 765 764 764 764 764 764 764 764 763 763 763 763 762 761 762 752 737 735 736 735 736 736 737 738 739 740 741 743 745 747 748 748 748 748 749 750 754 757 758 759 758 755 754 753 754 754 753 753 751 750 749 748 750 747 745 748 748 750 752 750 751 754 754 753 754 758 760 760 762 764 765 767 768 768
776 775 773 771 769 768 767 766 765 764 764 764 764 764 764 763 763 763 763 763 763 763 763 763 763 762 762 762 759 746 735 736 736 736 737 737 738 738 739 740 740 742 744 746 747 746 748 748 748 752 755 756 758 759 756 752 753 752 754 755 753 752 749 746 746 747 748 745 742 746 752 755 753 751 751 753 754 755 757 759 761 762 763 765 767 768 769 769
776 774 773 771 769 767 766 765 764 764 763 763 763 763 763 762 762 762 762 763 763 763 763 763 763 763 763 758 746 737 735 737 736 736 737 737 738 738 739 741 741 743 743 744 746 746 749 749 749 752 753 756 758 756 752 752 753 753 755 757 756 757 752 746 746 747 747 744 740 746 759 760 751 750 753 753 753 756 760 761 762 763 765 766 768 769 771 772
776 774 773 771 769 767 766 765 764 763 763 762 762 762 762 761 762 761 762 762 762 763 763 763 763 763 763 751 736 734 735 735 735 735 736 737 738 738 739 741 741 743 743 745 746 747 748 749 750 752 753 755 754 752 753 755 755 756 758 761 766 767 756 746 746 749 746 743 739 745 760 759 748 749 753 752 752 755 759 762 763 764 765 767 769 771 773 775
776 774 773 771 769 767 766 764 763 763 762 762 761 761 760 760 760 760 761 761 762 762 762 763 763 763 763 749 734 734 734 733 734 733 734 736 737 738 739 740 742 743 744 746 747 748 748 749 751 754 754 752 752 755 758 758 758 762 763 766 773 771 760 749 746 749 746 743 742 746 760 759 748 748 750 751 753 755 759 761 763 764 766 768 771 772 774 775
776 774 772 771 769 767 766 764 763 762 761 761 760 760 759 759 760 760 760 760 761 762 762 763 762 764 761 745 734 734 734 733 733 732 734 735 736 737 738 740 742 743 744 746 747 748 748 750 752 754 753 752 755 757 761 764 764 767 767 767 770 769 765 755 745 746 745 745 744 746 755 756 750 750 751 751 753 756 759 761 763 764 767 769 771 772 774 776
776 774 772 771 769 767 765 764 762 761 761 760 760 759 759 759 759 759 760 761 761 761 762 762 763 764 753 737 735 735 733 733 731 732 732 733 736 737 738 741 742 743 744 745 747 748 749 750 753 754 755 759 760 758 766 775 771 769 770 768 769 769 767 760 750 746 745 747 747 746 752 752 751 754 753 751 753 757 760 761 763 765 766 769 770 772 773 775
775 774 772 770 769 767 765 763 762 761 760 760 759 758 758 758 759 759 760 760 761 762 763 763 763 761 747 735 736 735 732 732 731 732 732 733 736 737 738 740 741 742 744 747 748 748 749 752 755 756 759 762 762 761 770 775 768 767 769 768 771 770 767 763 755 748 746 749 749 750 753 752 754 758 755 752 754 757 761 762 764 766 767 768 770 772 773 774
775 773 771 770 768 766 765 763 762 761 760 759 759 758 757 758 759 759 760 761 761 758 755 756 756 750 741 736 735 732 731 731 731 731 731 733 735 737 738 739 740 742 746 749 749 749 751 754 758 760 762 762 760 760 762 763 762 764 767 768 770 768 765 760 753 749 751 752 752 753 753 750 755 760 756 753 754 757 761 763 764 766 767 769 770 772 773 774
774 772 770 769 767 766 764 763 761 760 760 759 758 758 757 757 758 758 760 760 755 747 743 745 746 742 738 735 732 732 731 730 730 730 731 732 734 737 739 740 742 744 748 751 751 751 752 757 762 761 760 758 756 760 761 762 764 764 767 768 769 770 764 756 750 748 750 751 754 756 751 748 755 760 758 755 756 759 760 763 764 765 767 768 770 771 772 774
773 771 770 768 766 765 764 762 760 759 759 758 758 758 756 756 758 757 755 752 745 742 741 739 739 738 734 733 731 732 733 732 730 730 731 732 733 738 742 743 746 750 753 754 753 752 753 760 761 754 755 756 757 763 764 764 764 764 769 768 768 770 762 752 749 749 749 749 756 761 753 751 758 760 760 758 758 759 760 761 763 764 766 768 768 770 771 772
772 770 768 767 765 764 763 761 759 758 758 758 757 757 755 754 755 754 753 749 740 737 738 735 736 736 731 731 732 732 736 737 733 730 731 732 734 739 743 745 748 752 755 755 755 757 760 760 753 751 759 761 762 766 764 763 764 766 771 770 766 766 761 753 749 751 752 748 754 760 755 753 759 760 761 762 760 759 760 761 762 764 766 767 767 768 770 772
771 769 767 766 764 763 762 760 758 757 757 757 757 756 754 753 752 751 752 752 741 732 732 733 734 734 730 731 730 732 737 738 736 731 729 732 736 739 742 746 749 752 755 755 756 762 764 757 750 754 761 760 761 766 765 764 765 766 768 767 763 763 762 756 750 752 755 753 755 756 754 755 757 759 761 762 761 760 761 763 764 766 766 766 767 767 769 771
770 768 766 764 763 762 760 759 757 756 756 756 755 753 752 751 750 750 750 751 743 732 727 727 728 729 728 726 726 730 734 734 733 730 727 730 736 739 740 744 749 753 754 754 755 759 758 752 752 756 758 756 758 763 765 765 765 765 764 763 759 756 757 755 754 755 755 757 758 754 756 758 755 758 761 760 761 762 763 764 766 768 768 768 769 768 768 770
768 767 765 763 762 760 759 758 756 756 756 754 752 750 751 750 748 749 749 752 748 734 725 724 725 723 720 722 724 726 730 730 728 726 724 726 732 738 740 741 746 752 754 755 757 757 752 750 752 753 755 757 756 758 761 761 764 763 759 756 753 750 752 753 755 756 755 758 762 761 765 767 757 755 761 762 761 763 765 765 766 768 769 769 770 769 769 769
768 766 763 762 760 758 757 756 755 756 754 752 750 749 750 748 747 747 750 760 754 735 726 726 726 721 717 722 723 723 731 730 721 720 723 724 726 732 739 742 743 747 752 753 755 753 749 749 751 750 753 757 756 756 756 757 763 763 755 753 753 750 751 751 751 755 760 763 767 766 767 773 764 753 761 767 763 765 767 765 765 766 768 768 769 768 768 769
767 765 762 761 759 758 757 755 756 756 753 750 748 749 748 746 747 745 752 767 756 732 727 728 725 721 717 720 720 724 735 728 718 720 720 722 724 727 737 744 743 745 747 751 754 750 746 748 751 749 750 756 755 752 752 755 758 757 753 753 752 748 749 752 750 754 763 764 765 766 763 770 771 759 762 768 763 764 766 766 766 765 765 766 766 767 767 767
765 763 761 760 758 758 757 756 755 753 751 749 747 748 746 745 746 745 759 774 752 725 725 724 720 717 716 719 719 720 725 721 723 725 718 719 724 727 737 741 740 741 742 748 753 749 744 744 745 744 747 752 748 743 747 750 749 749 753 756 752 750 752 754 753 756 767 767 763 767 767 771 776 766 763 767 763 762 763 763 764 763 764 765 764 765 766 765
764 761 760 758 757 757 756 755 754 751 749 748 747 747 744 745 745 749 768 771 741 721 722 720 718 719 718 722 722 718 718 719 723 724 718 721 724 725 735 737 736 740 741 745 746 743 743 741 739 741 744 744 739 742 747 744 742 747 755 757 756 759 760 759 759 758 765 770 768 772 774 773 777 772 766 767 765 763 762 761 761 761 761 762 763 763 763 765
761 760 758 756 755 755 754 753 750 748 748 747 747 745 743 745 749 764 778 763 736 726 722 719 722 721 721 727 727 722 721 721 720 721 722 724 724 724 730 732 734 739 742 745 743 739 740 740 739 738 738 737 735 745 751 746 746 749 751 753 755 759 760 761 767 763 766 775 774 777 778 773 777 779 774 770 768 768 767 761 758 760 760 758 760 761 761 763
758 757 756 754 754 754 753 751 746 746 747 746 746 744 744 750 760 776 774 748 735 730 723 723 725 722 723 729 730 725 725 724 720 722 726 727 728 729 732 735 737 743 748 747 743 743 741 739 740 734 733 735 735 743 751 750 750 749 747 752 758 764 765 766 770 769 775 783 777 780 783 774 774 780 778 774 770 771 772 763 757 762 763 758 758 759 759 762
755 753 753 751 751 751 750 748 745 746 746 745 747 744 748 761 770 772 758 740 738 734 728 729 727 725 727 727 728 726 726 726 722 723 727 730 733 734 734 737 739 748 757 753 747 747 741 737 738 734 731 732 733 742 750 749 749 748 749 756 766 776 779 779 783 783 785 783 778 783 784 775 773 774 776 776 771 770 772 768 765 766 764 760 759 759 759 761
751 749 748 747 746 745 744 744 745 746 745 745 748 747 755 768 769 760 751 743 740 734 729 730 727 727 730 728 727 726 726 727 723 723 726 729 734 735 734 735 736 742 752 756 755 751 745 741 737 733 732 730 731 740 748 748 748 748 750 755 767 782 788 793 801 801 793 782 781 786 781 775 775 772 772 774 771 769 770 770 768 766 764 761 762 762 762 764
748 746 743 742 742 740 740 742 743 744 745 746 748 752 762 768 761 753 751 746 738 733 731 730 729 728 728 729 727 723 726 727 724 725 728 731 737 739 736 738 737 736 744 755 759 755 754 751 738 732 733 730 729 733 736 740 746 751 753 753 759 769 776 787 792 790 788 785 786 786 781 779 776 772 772 772 770 771 770 769 767 765 764 762 764 767 768 769
744 742 740 738 737 736 736 739 741 743 745 745 750 759 764 762 757 752 749 742 737 736 733 731 731 731 730 730 727 723 724 726 726 727 730 733 737 737 735 735 736 736 741 752 758 757 760 753 735 732 734 729 729 732 731 736 746 758 759 753 756 755 758 780 792 787 786 786 787 787 784 783 777 771 772 771 770 771 771 769 766 766 766 764 766 770 771 772
741 738 737 736 735 735 735 736 738 741 743 745 754 761 759 752 750 748 742 737 737 738 735 733 732 734 735 732 730 727 723 724 728 729 732 734 734 735 733 730 731 733 734 743 752 756 758 749 735 734 733 729 731 732 730 733 744 757 759 753 757 754 753 774 795 798 791 784 790 795 787 783 780 773 771 770 771 772 772 771 768 766 766 766 767 768 769 771
739 737 736 736 735 734 734 733 737 740 741 746 753 756 754 747 743 743 737 735 737 736 738 740 735 733 737 734 733 730 724 726 730 732 734 735 733 733 731 726 728 728 724 731 742 747 750 746 738 736 734 731 733 731 731 734 738 748 752 750 755 759 757 764 780 795 795 787 791 798 792 787 784 778 773 771 772 774 774 773 770 767 764 765 767 766 766 769
739 738 736 736 734 731 731 732 735 738 741 747 751 753 753 747 739 739 737 735 738 736 741 745 737 733 737 736 734 731 727 731 735 737 736 735 733 731 728 726 726 727 724 725 734 741 746 747 742 739 738 735 732 732 736 739 739 740 742 744 751 757 761 765 774 784 790 794 795 796 799 795 782 775 772 770 772 773 774 774 772 769 767 767 770 768 767 769
740 738 737 736 733 729 730 732 735 738 740 747 751 750 750 746 739 738 736 735 738 739 741 743 738 737 736 734 734 731 729 731 736 741 741 738 735 730 728 726 724 727 727 724 731 741 746 749 747 740 740 739 736 737 742 743 743 742 742 747 751 755 760 765 771 773 777 793 799 794 795 789 775 772 769 765 769 771 773 774 773 773 772 771 772 771 769 771
741 739 739 738 734 731 732 734 737 738 740 748 751 747 746 744 738 736 734 734 736 737 740 741 740 740 736 733 734 731 730 731 732 739 743 740 736 731 728 726 724 727 728 725 732 741 745 750 751 743 741 743 744 746 747 744 744 744 745 750 753 759 764 765 772 777 774 782 792 792 791 781 770 771 768 763 767 770 773 775 774 775 774 773 774 773 773 775
742 740 741 739 736 736 736 737 739 740 742 748 750 746 744 740 737 735 733 734 735 733 735 737 737 738 737 735 734 730 731 734 732 735 739 739 739 735 729 726 725 725 727 728 731 736 741 747 750 747 746 749 750 751 751 747 744 743 746 752 755 759 762 762 774 786 778 777 785 785 782 775 770 772 769 768 770 771 775 777 776 776 776 775 776 776 777 779
744 744 743 740 738 738 738 739 744 744 743 744 744 742 739 736 736 736 733 734 735 733 733 734 734 735 735 735 733 730 731 734 734 734 735 736 739 737 732 729 725 723 725 731 733 735 738 741 747 753 754 754 752 750 751 752 749 746 750 760 762 758 756 756 766 777 778 784 790 784 777 772 772 776 774 772 773 772 774 776 776 778 777 777 779 778 780 781
749 748 744 740 739 738 739 741 744 744 741 741 740 738 737 736 736 735 734 736 737 735 735 734 733 732 732 732 731 731 733 734 736 735 731 732 735 735 734 731 727 724 725 730 735 736 737 742 751 758 757 753 748 746 749 752 751 750 755 764 766 763 761 759 763 767 772 780 783 780 780 773 770 777 777 773 772 771 773 776 777 779 779 779 781 781 781 782
755 753 748 743 739 739 745 751 752 749 745 743 741 739 737 736 737 737 737 739 740 740 739 736 734 735 734 733 732 734 736 736 736 737 733 732 733 731 731 729 726 726 727 730 731 731 738 746 752 760 766 763 758 754 753 752 754 757 763 768 768 769 768 766 768 768 768 777 777 773 776 774 772 778 777 773 772 772 774 777 778 781 780 780 781 781 782 783
755 753 751 749 744 745 753 760 760 755 750 747 745 744 743 739 739 740 740 742 744 744 743 739 738 740 738 736 736 738 739 735 735 739 739 738 734 730 730 731 730 730 731 732 730 729 741 753 751 755 767 771 768 765 761 758 761 764 765 765 768 772 768 763 766 764 765 780 781 769 768 772 774 778 777 776 776 775 776 778 779 782 782 781 782 782 783 784
755 756 758 755 750 753 758 761 761 758 754 752 749 750 751 746 742 740 740 743 745 745 746 745 744 741 738 738 739 741 743 739 737 741 745 743 738 734 734 732 732 733 732 733 734 734 747 761 759 752 756 759 761 764 764 761 762 766 764 760 764 773 770 765 765 763 766 779 779 771 771 773 777 783 783 782 783 781 781 782 781 783 783 783 784 784 785 786
761 767 772 765 759 761 761 761 763 762 760 758 754 755 757 754 748 743 740 743 746 746 747 749 749 745 743 743 740 742 747 745 742 746 750 750 745 740 736 732 732 735 732 732 736 736 744 760 766 761 760 762 763 765 765 761 761 765 763 761 765 770 768 763 763 768 773 774 774 778 780 777 782 793 793 791 791 787 786 787 786 786 786 785 786 786 786 787
766 771 776 772 770 772 770 769 770 767 763 760 759 761 762 758 754 750 747 745 746 746 746 749 754 754 755 751 743 746 753 749 747 752 754 752 749 742 736 733 734 737 734 734 736 737 744 760 768 767 767 770 769 767 766 766 769 771 769 768 769 767 765 763 769 780 778 767 769 780 783 785 794 802 801 799 798 795 794 795 792 790 790 788 787 788 789 790
771 774 775 772 774 777 777 776 774 770 767 766 765 766 767 764 760 757 754 749 747 749 749 753 758 759 758 754 747 753 760 754 752 758 757 755 753 748 744 741 739 740 738 738 740 741 748 762 769 768 770 773 770 768 770 770 772 776 779 781 778 774 775 776 782 793 787 777 783 786 786 797 806 805 803 803 800 799 799 798 796 795 795 792 790 791 792 793
777 779 778 775 775 777 777 777 775 772 772 773 773 772 771 770 765 761 760 758 756 756 755 757 761 760 758 756 753 758 764 760 759 760 759 758 755 753 754 753 749 745 742 743 746 743 747 762 769 767 773 780 775 773 775 772 772 778 785 789 786 781 782 784 789 796 789 788 798 792 787 801 808 804 806 805 800 800 799 800 802 802 801 798 794 795 796 796
781 782 782 778 779 781 780 778 778 777 778 782 783 780 776 775 770 764 764 765 766 768 765 763 763 761 758 756 756 760 764 763 762 761 760 760 759 756 756 756 755 752 748 748 750 746 749 763 770 767 774 783 781 779 780 776 776 781 784 789 790 785 785 790 797 802 796 791 793 787 788 802 807 805 807 805 802 803 804 805 807 806 805 804 802 802 802 802
782 782 783 780 781 786 786 782 780 780 784 790 790 786 783 779 772 766 765 766 767 769 770 768 764 761 759 757 758 761 763 762 761 760 760 760 760 760 758 758 758 756 753 752 754 755 756 759 764 766 772 780 784 784 783 778 776 780 786 796 801 798 797 799 803 810 810 802 792 786 794 806 808 807 808 807 806 807 809 811 810 809 809 808 807 807 807 807
Wind_Speed
15 15 14 15 15 14 13 13 13 13 13 13 12 12 12 11 11 11 11 11 11 12 12 12 12 13 13 13 14 15 18 19 19 15 9 10 10 7 7 5 6 14 12 6 4 2 4 4 4 4 5 2 1 0 0 1 2 3 3 2 2 3 3 5 5 5 3 3 5 6 4 4 5 2 1 4 6 4 5 5 3 6 6 6 11 22 27 25
16 15 15 15 15 14 14 13 13 13 13 13 12 12 12 12 11 11 11 11 11 11 11 11 12 12 12 12 13 15 18 19 17 14 12 9 7 5 6 7 7 11 12 8 6 5 6 3 3 5 4 2 2 2 1 1 1 2 3 2 3 4 4 5 5 5 3 2 6 8 3 3 2 3 2 2 1 3 5 4 4 8 9 10 14 22 24 25
16 15 15 15 15 14 14 13 13 13 13 13 12 12 12 12 11 11 11 11 11 11 11 11 11 11 11 11 12 15 17 14 10 8 6 4 4 8 8 11 10 9 9 6 6 6 6 5 5 5 4 2 1 2 1 1 1 2 3 1 5 6 4 4 5 7 5 2 6 9 4 6 5 4 1 4 4 1 1 2 3 6 9 10 11 17 21 23
16 16 15 15 15 14 14 13 13 13 13 13 12 12 12 12 11 11 11 11 11 11 11 11 10 11 11 11 11 14 13 7 3 4 2 4 2 8 12 14 12 9 7 6 6 6 6 6 5 5 4 2 3 2 1 2 2 1 3 4 5 5 2 6 8 8 7 1 3 6 6 8 6 1 2 7 6 2 5 6 5 9 14 14 11 13 18 19
17 16 16 15 15 14 14 13 13 13 13 13 12 12 11 12 11 11 11 11 11 11 11 10 10 10 11 10 11 11 7 3 2 4 2 3 2 10 17 15 13 10 8 8 7 8 6 5 5 5 4 2 2 3 1 3 3 1 3 5 5 5 2 7 7 7 6 1 2 4 4 5 3 2 2 6 5 4 5 6 7 12 16 15 13 13 14 15
17 17 16 16 15 14 14 13 13 13 13 13 12 12 11 11 11 12 11 11 10 10 10 9 9 10 10 10 8 5 2 1 5 5 4 2 1 12 19 16 13 11 10 8 7 7 5 4 6 3 3 2 2 1 4 3 2 2 3 3 4 5 4 5 4 5 4 2 5 4 2 3 3 4 2 4 3 5 5 5 7 12 16 15 13 13 14 14
18 17 16 16 15 15 14 13 13 13 13 12 12 12 11 11 11 11 11 11 10 10 10 8 9 9 9 8 4 2 3 4 8 5 5 3 2 14 21 17 15 13 12 8 6 5 4 6 4 3 4 2 3 3 4 1 1 3 3 5 4 4 5 6 4 4 4 6 8 2 4 5 4 4 1 1 4 5 2 3 10 13 16 15 12 13 13 11
19 18 17 16 15 15 14 14 13 13 13 12 12 12 11 11 11 11 11 11 10 10 9 8 8 8 9 7 1 3 1 6 7 5 6 4 5 15 21 18 16 14 12 10 7 5 5 6 4 4 3 1 4 3 3 1 2 3 4 5 3 3 6 7 6 6 6 8 6 3 6 9 8 3 3 1 4 2 5 9 12 13 14 13 12 13 11 9
19 19 18 17 16 15 14 14 13 12 12 12 12 12 11 11 11 11 10 10 10 9 8 7 8 7 7 5 2 2 4 5 6 5 5 4 6 15 21 18 17 14 11 10 8 6 4 4 4 4 3 2 4 2 2 1 2 5 6 4 3 5 6 5 6 7 5 5 3 2 8 10 6 4 2 2 3 5 9 11 12 13 13 12 11 12 11 10
20 20 19 18 16 15 14 13 13 12 12 12 12 11 11 11 11 11 9 9 9 8 8 7 7 6 6 4 3 1 4 4 7 5 4 4 6 15 21 17 18 16 10 9 8 7 5 5 5 4 4 3 3 2 1 4 3 5 6 4 6 6 7 2 4 6 2 3 6 7 8 7 3 3 3 2 5 7 11 11 10 12 12 11 10 9 9 10
20 20 20 19 17 15 14 13 13 12 11 11 11 11 11 11 10 10 9 9 8 8 7 5 6 5 4 2 3 3 4 5 6 3 3 4 5 12 19 18 19 18 12 8 9 12 8 7 6 4 2 1 1 1 2 5 3 3 4 4 6 5 6 3 4 6 1 3 7 9 6 2 4 1 4 4 7 8 12 12 10 11 10 9 9 8 8 8
21 20 20 19 18 16 14 13 12 11 11 11 11 11 11 10 9 10 9 8 8 7 5 3 3 3 3 2 5 8 5 5 7 6 3 4 3 7 14 16 18 18 15 9 10 16 11 6 7 4 0 1 0 1 2 4 2 1 3 2 7 7 6 5 4 4 3 3 6 8 1 3 1 4 3 7 9 8 12 13 10 9 7 8 8 6 6 6
21 21 20 20 19 17 15 13 12 12 11 10 10 10 10 10 9 9 8 7 7 5 3 2 2 2 2 1 7 8 9 9 10 10 6 5 3 4 8 12 15 15 16 12 9 13 12 6 5 2 1 2 1 2 1 1 1 2 2 1 4 7 6 6 1 2 4 3 6 7 2 5 7 7 3 9 12 11 12 12 11 8 6 7 6 5 5 4
21 21 21 21 20 19 16 14 13 12 11 10 10 9 9 9 8 8 7 6 6 4 2 1 2 1 2 5 10 9 11 11 11 12 10 8 5 3 6 11 12 13 16 13 5 4 10 8 1 2 1 3 2 3 2 5 3 1 1 1 3 2 4 8 2 3 2 3 6 7 4 6 8 8 6 10 12 14 14 12 11 9 6 6 5 6 5 4
22 22 21 21 21 20 18 15 13 12 11 10 9 9 9 8 7 7 5 5 4 2 2 1 1 1 1 8 11 6 6 8 11 14 12 10 7 4 7 12 12 14 14 11 4 3 6 7 2 1 3 2 2 3 3 4 3 3 1 2 3 1 4 9 4 5 5 4 3 6 3 5 8 7 8 11 10 11 12 12 12 11 8 7 5 6 6 4
22 21 21 21 21 21 19 16 14 12 11 10 9 9 8 6 6 5 4 3 1 2 3 1 1 2 0 5 5 2 4 5 8 10 11 12 8 4 10 12 8 10 11 8 6 4 4 4 1 1 1 0 4 4 3 4 4 4 2 2 2 1 2 6 3 5 6 2 1 4 3 2 5 4 7 11 11 9 10 11 12 11 9 7 6 5 7 6
22 21 21 21 20 20 20 18 14 11 11 10 9 8 7 5 3 2 1 1 1 3 5 2 0 2 3 6 4 2 4 4 6 7 10 14 10 6 10 8 4 6 7 5 5 4 2 2 0 0 2 2 3 4 3 3 3 4 3 0 2 2 2 3 5 4 0 1 3 2 4 3 5 2 6 10 12 9 8 10 10 10 7 6 6 5 6 6
22 21 21 21 20 20 20 19 15 11 9 9 8 8 4 2 1 1 3 5 4 2 3 1 1 0 3 5 3 3 5 5 5 4 9 12 11 9 6 3 4 4 2 1 2 2 1 0 2 2 3 4 3 5 3 3 3 2 0 1 2 3 2 3 5 3 3 1 4 3 4 5 5 1 6 8 10 9 8 8 8 8 7 6 6 6 6 6
22 21 21 21 20 19 19 19 16 11 9 7 7 5 1 3 3 3 4 5 4 2 2 3 3 1 2 4 5 7 9 7 5 4 9 11 10 9 1 3 4 4 3 2 1 0 2 1 3 2 0 1 2 5 6 7 5 5 4 3 3 3 4 5 6 5 0 2 3 4 5 5 3 4 7 8 8 9 8 6 6 7 7 6 5 5 6 6
22 21 21 21 21 20 19 18 18 13 9 7 5 3 2 2 2 2 1 2 5 5 5 5 7 4 5 5 4 6 8 5 3 4 10 11 9 6 0 3 5 5 2 3 1 1 4 3 1 4 5 6 7 6 6 5 4 4 3 3 4 3 4 6 5 6 1 4 1 4 6 6 6 7 6 7 8 8 9 7 8 8 7 7 6 6 6 6
22 22 21 22 21 20 19 18 18 14 10 7 4 1 0 1 2 3 3 4 8 9 9 9 10 8 8 5 3 4 4 3 3 1 8 11 9 7 0 2 5 3 1 3 1 3 5 3 5 8 9 8 6 5 5 4 3 2 2 2 3 3 4 7 4 6 3 3 2 0 5 3 4 3 3 6 8 8 8 9 10 10 7 6 7 8 8 6
23 22 22 22 20 20 19 18 18 15 11 7 3 1 2 1 1 4 3 4 8 10 12 12 9 10 11 9 7 1 3 1 6 5 7 10 6 4 1 4 5 2 2 2 2 4 4 2 10 9 6 5 4 4 5 3 3 3 2 2 2 3 3 7 5 5 4 4 1 1 5 2 5 3 3 3 3 2 3 4 7 9 9 7 9 9 8 7
23 23 23 22 21 20 18 18 19 14 8 5 4 3 2 4 6 6 2 3 7 6 9 9 6 7 8 8 9 6 3 3 3 5 8 11 3 4 4 4 5 3 2 3 4 1 0 5 8 5 7 6 2 3 6 4 2 2 3 3 2 3 1 2 4 5 5 3 3 4 5 3 6 2 2 2 1 2 4 3 3 6 7 7 7 7 7 8
24 24 23 22 22 20 18 19 15 7 5 8 10 5 4 9 10 5 2 1 5 4 5 8 6 6 7 5 8 11 4 4 4 4 9 12 4 3 5 4 5 3 2 5 7 5 5 6 3 6 7 7 4 3 6 5 2 3 3 5 3 4 4 4 3 5 5 4 4 5 5 4 5 3 2 2 2 3 3 5 5 4 4 3 4 5 6 7
25 25 24 24 22 20 19 14 5 4 8 11 10 5 10 15 11 1 3 2 3 5 3 5 3 5 7 5 9 11 3 3 5 5 11 13 8 4 2 3 4 3 5 5 7 4 7 6 5 6 4 5 5 4 5 7 2 4 4 8 7 4 4 3 3 5 4 5 4 5 5 3 6 4 3 2 2 3 1 5 6 5 4 4 5 6 5 5
26 26 25 24 22 22 17 5 2 8 11 8 5 7 14 17 8 4 3 4 3 5 3 1 2 4 6 5 6 6 3 3 6 7 10 12 11 6 2 1 1 3 6 5 4 2 4 2 3 5 5 5 4 3 5 7 6 1 5 8 7 5 4 2 3 4 2 0 2 3 5 1 6 4 3 4 1 2 1 4 6 5 5 5 6 6 6 6
26 26 26 24 22 20 11 3 8 10 6 4 5 10 17 15 4 5 2 5 3 3 1 1 1 4 5 5 7 6 3 3 2 5 8 13 11 4 3 4 0 2 4 4 1 2 4 2 3 3 5 5 4 3 6 8 8 2 5 7 8 6 5 4 5 4 1 2 2 5 5 4 2 4 5 4 2 2 2 4 5 5 6 6 6 6 6 7
27 27 26 23 20 16 9 9 11 6 4 6 9 14 17 12 1 4 4 3 2 1 2 1 0 4 2 3 7 4 2 2 3 2 4 12 10 3 3 7 5 5 3 5 3 5 3 4 3 4 5 2 4 5 7 10 5 5 5 7 6 5 4 4 6 3 1 2 2 6 4 4 2 5 5 5 3 4 6 6 6 6 6 7 7 7 7 7
28 27 25 24 21 15 9 8 8 6 7 8 11 17 16 7 1 4 4 0 2 1 1 0 1 2 1 3 5 4 1 2 2 2 1 7 7 2 4 6 6 6 1 5 5 6 2 4 6 7 4 4 5 4 9 10 4 4 7 6 5 5 5 5 5 3 3 3 3 6 3 3 3 5 4 5 3 4 6 5 6 6 7 7 7 7 7 6
28 27 26 24 19 12 6 8 13 9 6 8 13 16 11 3 4 4 1 3 2 1 0 0 0 1 4 4 3 5 2 2 1 2 3 2 1 3 2 3 6 5 0 3 2 5 3 2 3 4 3 6 4 2 3 4 4 6 6 6 7 6 5 4 3 4 4 2 5 6 2 3 1 4 1 1 2 4 6 6 6 5 6 8 8 7 8 7
29 27 25 22 17 10 4 7 10 3 2 9 15 12 5 2 4 4 3 4 3 2 2 1 1 2 3 4 3 3 2 2 1 3 2 1 3 3 1 1 4 4 3 4 3 4 6 3 2 2 3 4 5 5 3 3 3 5 5 5 5 4 5 4 4 4 4 2 6 5 2 4 3 3 3 4 6 6 5 8 8 4 5 7 8 7 7 6
31 27 24 21 17 13 11 8 8 6 8 13 11 6 3 1 0 2 4 4 2 1 2 1 2 3 1 2 3 3 2 2 1 3 4 3 4 4 3 4 3 3 3 3 2 4 4 3 4 5 2 4 6 4 2 5 5 5 5 5 5 2 3 1 3 1 2 4 3 3 2 2 3 4 4 5 7 6 5 7 9 7 7 7 6 6 6 6
31 28 24 20 15 16 17 13 11 12 13 9 4 4 6 3 3 5 4 3 1 2 1 1 3 3 1 1 2 3 2 3 4 3 3 3 4 4 1 2 5 5 1 3 1 1 3 5 4 3 2 2 6 6 2 1 1 4 5 5 4 3 2 1 3 1 2 4 2 5 3 0 3 3 2 4 6 6 6 5 5 5 4 2 2 3 4 4
30 26 23 18 15 18 19 14 11 8 6 1 3 4 5 3 4 4 3 3 3 3 2 1 4 4 0 1 2 2 1 2 3 3 2 3 3 4 2 1 3 4 4 3 2 3 2 3 3 3 1 0 3 5 6 5 3 3 4 5 5 4 4 3 3 2 3 2 2 4 2 2 2 2 3 5 5 5 5 2 4 4 4 7 7 7 6 6
28 24 20 16 14 14 14 15 14 9 5 3 6 4 4 4 4 2 3 3 2 2 3 3 1 2 2 2 2 0 2 2 0 4 2 3 4 4 3 4 4 4 4 3 2 2 4 4 6 4 1 2 2 2 5 6 3 1 2 5 3 4 5 3 2 4 4 2 0 1 2 2 3 3 5 4 3 5 4 3 8 8 7 9 9 8 7 6
27 22 14 8 9 11 10 11 15 15 8 5 4 2 4 4 4 3 3 1 1 1 4 5 3 2 2 2 2 2 2 1 1 2 1 3 3 3 3 4 5 6 5 4 3 1 3 4 6 3 1 1 2 3 3 3 3 1 2 3 4 4 7 6 2 1 3 4 1 1 2 4 2 2 4 4 5 5 5 4 7 8 8 9 8 7 6 5
26 19 7 5 13 15 13 9 17 17 7 6 4 5 4 3 4 4 1 1 1 1 3 2 1 0 1 1 2 3 2 2 3 2 1 2 2 3 3 2 2 7 7 5 2 3 4 2 5 1 1 2 1 3 4 2 4 4 3 5 3 3 5 5 3 3 4 3 3 2 1 3 1 1 3 3 2 1 3 4 3 5 8 8 6 5 6 5
20 12 3 10 20 16 10 8 19 15 5 4 4 4 3 3 3 3 0 2 1 2 4 1 3 1 1 1 2 3 1 2 2 2 1 2 2 3 3 1 1 5 6 5 2 1 4 1 6 2 2 3 5 6 4 5 4 4 4 3 4 3 2 2 3 2 2 2 2 2 1 3 3 3 3 3 5 4 2 3 3 2 4 5 3 3 5 6
11 4 2 16 24 12 4 14 18 9 4 4 5 3 3 3 4 3 2 0 1 1 1 3 2 1 1 2 3 3 1 3 2 2 1 1 2 2 1 1 1 2 3 7 5 1 3 2 4 3 1 2 5 4 2 2 4 4 3 3 2 3 4 3 2 3 4 4 2 1 2 2 5 5 5 6 7 6 3 1 1 1 2 4 2 2 4 5
4 2 2 18 23 7 11 13 9 4 3 5 4 3 2 2 3 4 4 2 1 1 2 3 2 1 2 2 3 2 0 2 4 4 2 1 2 2 2 2 2 1 1 6 5 1 3 3 3 4 4 2 2 1 3 4 2 3 2 1 1 2 3 2 2 2 4 5 3 2 0 5 5 3 5 6 7 6 4 3 3 2 2 4 3 3 4 4
3 3 3 17 15 8 9 5 2 2 4 2 1 3 2 1 1 4 4 3 2 3 3 3 3 2 2 2 2 3 1 0 2 4 3 1 2 2 2 2 3 2 2 5 3 2 2 3 3 1 4 2 1 3 3 4 5 5 3 2 3 3 4 4 2 1 2 4 4 4 2 6 5 2 4 5 5 5 4 3 4 3 4 4 4 5 4 4
3 3 5 18 7 7 4 3 2 1 3 2 1 3 1 1 2 3 3 1 2 3 1 2 4 4 4 3 3 2 2 1 2 3 4 3 2 1 4 5 2 3 4 3 1 2 3 4 3 1 1 1 3 3 3 1 3 7 4 2 3 3 3 5 4 3 2 2 2 4 1 5 5 3 4 4 4 5 4 4 4 4 4 4 4 5 4 4
3 1 7 19 5 7 4 3 2 3 1 3 2 2 1 1 1 2 2 1 1 2 1 1 3 2 3 3 1 1 3 2 1 1 3 3 2 2 5 7 4 1 4 2 1 0 1 4 4 1 3 4 5 4 5 4 5 6 4 3 3 1 2 5 5 3 4 3 2 3 0 5 5 4 4 3 4 5 4 4 4 4 4 4 5 5 5 5
2 3 5 18 15 5 4 3 2 3 2 4 3 2 3 1 0 2 0 1 3 1 1 2 1 0 1 1 2 2 1 2 2 2 1 1 1 1 6 9 4 2 3 1 3 1 1 2 4 3 2 3 3 4 5 5 4 4 2 3 2 3 4 3 2 3 3 4 4 4 3 5 5 4 4 3 4 5 4 4 4 3 4 5 5 4 5 5
3 0 4 12 18 11 4 1 1 2 3 3 4 4 5 3 2 3 2 2 3 1 0 2 2 1 1 3 4 3 3 2 2 2 2 2 2 2 7 10 6 4 3 2 2 3 2 2 3 5 4 4 3 2 3 1 2 2 2 4 4 4 3 1 2 4 2 3 4 5 4 5 4 6 7 6 5 5 4 4 4 2 3 4 4 4 4 4
2 3 3 6 9 7 2 2 2 1 1 2 3 4 4 2 4 3 4 4 2 2 2 2 3 2 3 5 4 3 5 4 2 3 3 4 3 2 5 5 7 8 6 5 6 4 4 3 2 5 5 5 6 5 4 3 3 2 2 5 5 3 2 3 4 2 4 4 2 3 5 3 3 7 7 7 6 5 5 5 4 4 5 4 3 3 4 3
2 2 2 3 4 4 3 5 6 4 4 2 2 3 4 3 3 3 3 3 2 2 3 3 5 4 3 3 3 3 5 5 4 4 2 4 3 3 5 3 8 11 8 4 5 3 5 3 3 4 3 1 4 2 3 2 5 4 4 3 4 4 5 5 3 1 4 6 2 6 2 5 1 6 7 7 6 5 5 6 5 4 4 4 4 4 4 4
3 1 1 1 2 3 4 5 6 8 10 6 2 3 6 6 5 4 3 2 2 3 3 4 8 7 3 1 3 3 5 5 5 4 2 3 3 4 6 5 6 10 8 3 4 3 6 2 1 3 5 4 4 4 4 4 4 2 4 3 3 4 5 4 1 2 2 5 5 4 5 5 2 5 6 6 5 3 4 5 4 4 5 5 5 5 5 4
3 1 3 2 3 2 2 3 4 8 13 9 5 5 8 8 7 4 3 3 4 5 4 4 6 8 6 4 4 4 4 3 4 4 2 3 4 3 4 5 5 7 7 4 4 3 4 2 1 4 5 5 5 5 5 5 5 5 6 4 2 4 6 5 2 1 0 2 3 7 10 6 3 4 5 5 3 2 4 6 7 7 6 5 5 6 5 5
2 0 3 3 3 3 3 3 3 5 8 7 6 6 8 8 7 5 5 5 4 5 5 5 4 6 7 8 7 5 2 1 2 3 2 2 3 3 3 1 3 6 7 4 3 3 4 2 1 4 5 4 5 4 4 5 7 3 4 5 3 4 6 4 3 2 2 3 4 7 10 6 3 3 4 4 4 6 9 9 9 8 7 6 6 6 6 6
2 2 0 3 3 5 4 3 3 4 3 5 5 5 8 9 7 4 5 7 6 4 5 3 3 4 5 9 9 5 1 3 3 3 2 1 1 2 1 0 1 4 6 4 3 4 4 3 1 4 5 1 2 3 5 6 8 5 1 4 5 3 4 3 2 2 1 3 5 6 6 3 2 3 4 6 8 11 11 9 8 8 7 8 8 7 7 6
5 1 2 4 2 5 4 3 4 3 2 1 2 3 5 7 8 5 4 5 7 7 5 4 2 2 4 8 7 5 5 4 6 6 4 4 3 3 2 2 1 1 3 3 2 2 2 4 3 3 4 3 1 2 4 5 6 2 2 2 3 2 4 4 4 4 3 2 5 4 4 3 2 2 6 9 11 11 10 8 7 7 8 8 8 7 7 7
Wind_Direction
320 320 316 314 315 313 312 312 313 313 314 314 315 317 317 319 318 319 320 318 318 316 318 318 317 320 320 321 325 319 313 316 317 313 284 270 288 272 245 245 189 183 185 196 208 119 95 85 97 119 111 103 17 23 329 51 99 60 89 119 219 187 176 185 192 190 176 266 283 319 3 40 356 357 86 43 36 49 60 39 38 29 32 78 112 127 134 142
321 320 316 314 315 313 312 312 312 312 313 312 314 316 315 316 316 319 318 317 319 317 318 317 320 322 318 322 324 317 317 319 313 290 270 276 278 253 220 196 174 181 191 212 217 148 115 97 110 110 82 80 340 23 52 307 124 105 115 160 220 194 209 200 202 218 197 252 291 307 330 16 299 195 124 95 343 358 54 35 44 63 72 90 114 125 131 141
322 320 316 314 314 313 311 311 312 309 310 311 312 313 315 315 316 319 318 318 318 318 319 319 323 322 319 323 321 318 319 322 314 274 271 327 261 224 199 182 169 168 177 181 189 159 132 140 136 109 66 66 346 42 79 342 173 158 139 203 241 203 226 247 240 246 239 274 309 301 324 349 287 206 114 141 144 12 159 176 101 106 123 121 126 126 129 137
326 322 316 314 314 312 311 311 311 308 307 310 311 312 313 314 316 318 318 319 318 320 320 321 324 323 324 322 317 315 321 334 299 256 267 355 345 181 182 180 169 164 155 123 144 154 128 125 111 91 77 71 334 16 116 266 200 171 158 194 234 178 198 254 235 250 268 253 252 283 330 328 294 153 111 135 123 284 239 222 182 157 151 142 137 131 128 134
331 324 319 317 314 312 311 310 309 307 307 308 309 308 311 314 315 316 317 318 319 322 321 322 325 326 324 318 318 315 335 38 240 276 299 337 27 168 175 174 172 171 148 119 132 137 120 106 74 64 70 90 3 32 234 244 143 161 227 201 213 163 205 249 213 235 260 220 235 280 321 297 304 51 152 139 137 222 233 236 192 155 155 149 140 134 131 138
335 328 324 319 316 313 310 310 307 305 306 307 308 306 309 311 313 315 315 318 319 321 321 322 326 325 323 322 325 326 32 57 269 297 303 306 82 168 171 171 175 166 148 139 138 130 114 78 64 77 67 79 131 140 239 258 127 214 269 252 237 187 218 254 197 212 218 253 272 257 283 292 8 351 256 149 187 242 258 233 157 144 152 144 133 135 138 144
338 334 330 324 319 315 311 309 303 303 306 306 306 305 306 308 312 315 315 320 319 320 321 322 327 324 330 337 329 24 78 264 273 294 285 277 160 172 172 173 173 164 155 145 129 128 119 94 91 125 98 93 170 203 236 286 86 204 264 295 270 188 212 252 244 231 210 245 259 276 343 302 295 301 302 112 277 292 313 144 129 135 144 137 134 138 138 140
342 339 335 330 323 317 313 309 304 304 305 306 305 304 307 309 310 312 314 317 317 321 324 323 330 328 338 350 351 7 329 257 277 286 276 262 172 174 175 174 173 171 161 157 155 152 131 118 144 140 100 178 172 196 221 64 31 208 226 269 278 211 232 255 273 268 242 242 254 314 301 268 251 218 137 229 277 355 98 119 122 129 135 138 143 142 139 131
345 343 339 334 327 322 317 313 310 305 305 305 304 304 307 309 309 311 311 313 316 319 322 327 329 328 338 351 52 345 268 271 313 301 279 250 188 178 179 176 178 178 163 170 180 169 157 156 183 166 153 181 155 199 218 128 277 218 207 243 270 278 275 277 286 273 253 240 199 192 259 268 263 163 154 232 162 117 111 117 125 130 135 142 148 147 142 133
347 346 344 339 333 328 322 317 313 306 305 301 302 306 305 306 306 307 309 313 318 316 320 329 321 321 329 341 74 326 275 331 337 300 267 235 190 177 182 183 182 181 165 170 184 180 180 185 188 157 142 123 143 202 173 154 203 199 190 239 246 273 295 279 268 269 257 234 184 179 237 280 328 152 205 222 136 124 114 118 132 134 139 144 146 148 143 142
349 348 346 343 338 333 327 321 316 308 303 300 303 304 301 302 303 305 311 313 316 316 318 324 321 322 325 8 112 215 272 357 4 342 266 229 191 181 189 191 187 182 164 159 196 203 201 188 161 106 117 147 176 231 230 188 179 181 174 267 276 307 305 244 250 266 237 233 196 176 219 334 31 197 217 167 137 131 124 128 140 138 140 142 140 145 147 152
352 350 348 346 343 338 332 324 318 312 306 303 301 300 299 300 300 303 308 311 314 314 316 322 318 307 333 9 203 229 269 329 342 337 289 208 184 195 200 198 194 190 178 170 208 211 206 181 133 83 256 175 49 305 222 201 177 193 134 282 301 357 331 264 252 238 170 213 188 155 222 333 303 246 208 141 136 133 131 138 145 140 139 140 140 145 150 153
353 352 351 350 347 343 338 329 321 315 308 304 300 300 301 297 298 301 301 305 305 308 316 323 308 297 7 294 237 258 292 290 296 301 272 213 195 201 205 202 200 202 198 192 205 208 205 189 114 74 205 131 277 246 126 48 33 298 77 118 313 7 334 282 315 125 155 193 161 142 258 274 259 264 208 145 141 137 138 150 153 146 141 142 140 140 146 135
354 354 354 353 351 348 342 334 326 318 312 308 304 302 296 292 292 293 297 297 293 295 291 293 316 15 92 259 269 298 298 276 271 269 250 219 195 168 192 196 199 206 209 205 197 203 206 206 128 38 218 164 236 268 360 7 15 330 7 48 2 26 288 290 310 109 174 227 142 147 238 254 266 271 195 158 150 145 148 159 162 158 149 144 137 137 145 120
354 354 355 355 353 351 347 339 331 326 318 311 305 301 295 294 291 290 289 282 282 264 224 205 231 89 22 279 280 301 286 265 255 251 245 218 184 160 183 186 198 205 209 209 174 121 173 180 152 80 252 238 58 32 353 348 4 33 57 316 351 139 269 302 288 168 203 297 97 146 227 261 263 252 179 162 156 148 150 161 169 171 156 141 134 140 151 134
353 353 354 354 354 354 351 343 335 330 326 319 313 307 300 297 288 283 279 267 271 181 178 164 208 167 304 287 292 306 265 261 262 256 239 215 198 181 172 171 192 204 210 213 189 188 161 138 143 151 213 348 74 80 43 12 348 2 85 227 282 181 278 316 311 206 204 282 56 165 184 259 279 256 171 160 161 155 154 163 172 173 157 143 142 150 159 150
352 352 352 353 353 354 353 348 339 330 331 328 323 318 304 292 277 293 339 130 147 184 174 159 82 167 253 281 304 303 270 262 273 260 219 207 205 173 150 151 175 188 200 204 182 199 195 147 222 27 50 41 74 90 60 10 309 320 28 88 250 233 273 313 310 294 120 140 230 182 162 241 293 249 165 158 162 159 158 167 175 167 148 146 148 156 168 164
351 350 350 351 351 352 353 351 342 331 334 333 331 333 307 248 173 80 98 125 120 136 167 216 336 37 271 281 284 284 304 305 299 262 205 198 197 182 142 124 141 126 90 81 150 151 141 27 54 56 17 14 45 88 119 220 204 197 199 39 294 293 286 270 277 299 25 329 219 150 159 245 297 192 161 159 159 160 165 168 168 158 150 158 155 161 178 181
349 349 349 348 349 350 350 351 347 335 332 331 331 346 3 152 121 106 117 125 118 130 238 235 180 170 265 260 266 292 308 305 292 242 194 184 186 190 158 59 104 95 74 72 292 220 115 56 57 97 325 301 193 149 175 203 163 146 173 165 203 265 277 258 259 265 39 104 199 182 184 214 219 175 166 159 151 154 164 160 149 153 161 171 165 162 176 193
348 348 346 346 346 347 347 347 346 339 329 323 318 348 67 80 44 36 108 191 205 226 265 225 185 229 278 268 285 320 323 304 266 215 188 180 159 151 64 33 53 46 84 147 226 315 93 99 199 204 209 217 212 187 168 169 132 111 131 163 211 225 271 270 270 281 235 116 243 213 175 200 203 186 171 153 146 152 159 158 158 162 171 180 178 169 176 195
348 346 343 344 343 343 346 341 339 339 331 322 312 321 170 97 14 311 272 246 234 228 250 235 202 230 252 256 312 14 3 323 311 310 183 177 140 125 287 34 68 27 292 175 166 11 62 105 232 223 207 205 200 178 145 131 99 67 144 197 263 222 244 264 263 306 314 104 338 314 139 205 231 204 204 159 156 169 170 170 171 169 172 183 190 185 182 185
347 345 341 342 341 341 343 337 333 332 326 319 303 250 252 232 328 287 260 285 264 220 229 241 224 245 252 258 274 301 54 323 317 324 170 161 136 152 192 74 120 204 299 99 79 3 29 234 246 229 184 154 142 143 132 127 112 82 128 155 267 243 269 287 282 321 347 86 356 78 115 301 295 256 228 188 168 170 156 173 177 175 178 187 194 193 186 176
346 344 341 340 338 338 340 334 326 320 316 308 267 229 264 312 317 292 244 300 285 222 214 230 219 240 248 258 242 188 138 196 262 292 173 153 150 171 140 104 147 159 73 123 146 126 139 252 249 200 143 135 127 126 114 101 113 132 139 134 257 259 110 301 299 332 349 64 115 123 91 337 324 357 165 188 324 78 87 107 160 190 194 202 203 196 191 182
345 343 341 338 336 337 338 331 323 322 335 305 279 268 322 328 327 297 202 267 288 269 223 208 192 215 227 240 196 167 167 195 190 256 177 153 135 145 154 150 137 137 190 172 151 162 222 239 188 122 140 159 165 159 134 137 234 264 185 161 227 251 184 213 295 344 345 20 74 83 46 342 343 8 198 210 59 77 93 122 146 203 205 208 218 206 201 191
344 343 340 338 336 334 335 332 330 9 337 302 283 315 344 337 338 226 171 12 290 289 280 201 187 216 207 183 169 163 157 204 206 215 177 161 150 137 181 165 131 184 206 158 134 181 248 241 149 135 167 172 165 189 182 167 180 307 242 193 197 204 189 222 334 25 34 10 15 64 63 322 323 326 256 279 71 100 124 152 164 193 188 184 205 204 198 190
344 341 339 339 336 334 337 338 342 345 326 292 276 333 336 338 346 165 138 32 300 285 310 186 191 197 183 163 166 150 116 241 229 184 165 170 165 139 139 176 120 196 182 148 136 196 248 232 129 150 158 145 153 222 224 165 127 318 246 191 173 157 146 141 53 57 88 314 334 69 112 215 315 317 300 324 33 125 162 188 190 190 187 198 208 205 195 189
342 340 338 336 337 339 341 300 309 324 308 276 311 328 331 339 344 168 95 23 307 271 205 227 259 178 180 178 168 141 142 250 208 152 163 174 171 113 141 194 141 185 173 124 124 232 192 137 71 105 112 122 150 240 225 150 122 227 228 158 146 153 162 140 93 83 174 203 330 14 93 122 305 283 298 347 39 329 282 224 223 209 197 203 208 208 202 196
340 339 336 333 335 336 314 288 299 296 248 277 312 325 331 338 301 151 72 31 301 298 175 255 222 172 181 173 173 170 190 155 118 211 192 169 171 91 174 213 185 180 172 120 182 259 191 167 174 132 96 138 198 217 189 151 139 233 196 138 136 144 145 115 97 91 34 89 315 330 32 102 255 279 317 13 44 312 282 241 240 232 212 207 207 209 206 203
338 336 334 330 330 329 311 279 271 272 282 295 316 324 329 339 92 89 70 106 282 342 182 331 109 177 78 134 200 237 281 65 134 249 65 157 183 101 169 209 155 156 147 117 187 252 235 208 191 143 125 210 222 216 178 163 172 193 141 104 73 73 72 70 91 101 45 64 233 291 353 102 256 291 344 26 32 298 279 259 243 231 218 205 200 207 204 200
335 333 331 328 323 324 318 277 273 279 296 314 322 326 334 24 71 62 71 247 270 297 199 106 304 110 91 120 229 267 269 315 13 87 59 139 174 51 131 160 105 130 335 37 204 246 291 285 179 146 172 197 176 117 165 163 138 130 108 71 52 36 30 42 51 77 66 4 250 265 299 118 220 285 297 30 292 269 274 280 267 236 221 206 193 201 201 193
332 329 327 322 312 306 295 284 291 292 10 337 330 333 354 49 68 93 205 249 259 307 4 348 320 42 99 152 229 280 260 289 10 99 110 129 90 61 92 108 73 72 9 352 308 300 336 341 239 241 209 160 110 80 50 18 74 103 85 77 78 11 10 31 357 40 85 267 256 259 269 132 167 250 239 258 273 265 255 266 272 262 238 223 198 190 189 181
329 327 321 313 302 278 250 259 287 287 302 324 336 0 64 89 88 166 239 289 305 299 351 305 311 358 340 177 192 222 192 232 249 137 147 148 151 169 172 177 159 64 353 274 289 335 319 259 273 305 253 148 110 95 44 5 31 79 85 89 96 19 13 37 314 9 147 245 264 325 343 163 211 231 223 260 281 280 265 262 272 274 258 242 207 179 167 163
328 324 318 309 292 263 257 267 273 272 287 310 355 49 79 110 222 218 239 295 264 274 332 276 305 310 273 101 188 216 165 210 227 180 154 127 154 202 237 165 152 116 152 213 175 349 299 300 318 325 284 157 124 130 156 300 55 127 133 123 121 104 79 200 265 322 234 247 303 346 347 249 270 264 232 272 287 289 292 287 283 276 252 201 106 112 115 109
328 325 318 306 284 265 263 262 249 242 259 315 68 71 97 151 233 224 229 253 254 306 347 301 307 314 242 126 227 211 106 250 211 147 140 103 138 219 258 237 159 117 113 142 159 172 173 306 278 194 233 233 147 156 161 152 138 168 160 127 139 154 141 186 215 179 204 239 328 328 325 156 204 267 279 284 295 310 315 350 56 46 64 83 69 54 58 59
328 327 320 304 285 277 268 248 228 207 187 94 69 93 151 201 240 210 215 242 273 330 320 301 335 14 347 321 287 168 121 260 185 112 138 143 167 205 192 203 198 130 117 151 212 167 146 234 258 259 247 157 169 186 138 115 99 245 142 109 148 182 140 130 175 169 165 143 68 274 229 200 210 276 304 312 345 358 355 46 75 69 66 78 76 66 63 61
331 332 329 310 308 320 307 254 212 192 168 103 89 165 195 216 215 189 208 213 46 336 328 338 46 80 321 314 316 352 96 95 27 72 175 174 188 208 194 209 192 158 148 159 199 155 132 249 283 313 325 115 165 187 145 131 165 184 130 159 212 171 118 109 134 41 80 125 199 255 262 301 338 315 317 360 24 11 6 40 86 95 88 86 87 89 89 76
333 338 338 332 332 324 310 261 194 180 149 103 146 203 216 220 196 187 222 30 27 40 58 19 329 217 263 305 308 310 44 43 7 4 244 224 223 202 202 245 185 184 180 152 202 201 145 250 298 6 113 332 3 113 68 48 125 127 176 197 184 105 95 104 113 21 50 144 255 328 245 285 3 176 298 354 47 359 345 356 60 106 104 103 115 125 119 99
329 335 321 340 341 324 293 215 175 163 111 114 178 221 211 214 208 197 239 29 2 43 79 168 257 271 192 181 275 275 97 89 353 355 302 267 255 185 182 202 151 216 208 152 174 244 119 213 294 291 175 313 360 72 59 353 47 118 171 161 113 123 135 96 121 131 115 158 267 329 315 240 201 212 248 207 197 205 250 339 12 66 96 98 107 125 120 105
327 342 353 352 351 342 199 170 161 133 80 157 194 225 205 225 256 243 233 20 95 99 119 216 236 326 242 185 205 242 188 158 157 54 42 287 265 205 193 191 157 269 222 149 156 224 95 135 267 286 261 331 8 61 148 305 9 52 85 60 49 129 152 156 140 148 146 153 207 290 357 260 226 215 205 208 215 208 201 213 54 44 82 99 107 105 105 109
345 49 18 359 3 42 139 146 140 97 124 172 191 209 216 236 264 271 248 230 177 175 211 218 207 286 269 247 203 210 329 151 145 124 148 263 275 244 253 212 160 339 48 114 126 115 73 119 209 289 332 30 59 18 196 187 139 76 70 65 32 73 120 147 87 86 128 138 170 172 254 265 253 207 198 223 223 203 191 170 146 129 88 94 93 81 82 89
15 71 356 359 18 110 123 110 117 113 148 148 165 201 248 226 232 300 275 219 201 225 211 192 208 232 232 279 266 210 114 97 150 128 149 249 268 236 278 238 182 182 88 83 98 151 122 130 175 292 5 60 194 287 277 214 174 140 128 148 147 128 126 124 106 302 111 121 163 161 188 264 264 211 223 240 209 183 178 163 153 134 107 90 72 72 87 97
33 94 345 358 26 152 62 52 199 53 125 159 196 198 257 176 181 283 279 224 211 230 231 192 222 233 211 222 250 205 111 130 206 143 156 183 177 209 318 315 246 151 120 123 175 190 146 110 104 60 18 221 254 289 330 319 115 105 98 103 121 121 110 123 169 218 112 91 143 125 132 266 266 257 261 248 179 153 154 156 155 138 116 104 99 99 105 106
44 181 338 4 34 176 49 55 239 355 129 230 270 208 230 182 196 256 246 13 288 232 348 259 214 220 224 227 218 137 92 113 157 159 184 168 144 226 317 319 295 77 91 138 208 65 77 89 84 30 313 312 307 328 356 13 61 69 46 51 82 37 78 137 173 171 134 150 141 96 148 262 277 301 293 243 148 114 101 115 132 140 125 116 122 119 110 104
22 232 319 16 42 99 64 52 295 327 298 314 359 350 315 353 58 312 228 19 351 359 349 287 258 332 283 358 80 101 95 117 86 26 247 133 115 296 356 357 338 47 66 190 189 151 33 83 102 96 23 347 338 342 345 351 33 68 33 2 40 57 62 104 130 80 109 186 153 129 205 251 278 329 2 36 91 88 71 78 99 129 130 121 119 106 104 111
11 355 275 12 39 57 64 33 292 277 300 353 31 4 348 360 348 351 91 73 8 29 82 278 304 337 344 36 50 40 39 86 104 49 12 346 327 350 13 15 26 50 37 21 70 100 109 98 113 126 143 173 185 229 253 260 10 47 33 8 36 75 77 144 119 87 138 195 144 142 204 250 304 358 16 21 47 60 42 45 60 71 89 98 105 105 105 113
47 41 311 334 26 47 57 14 10 322 328 25 42 11 3 336 312 343 85 79 23 43 52 338 334 7 30 41 50 26 20 36 71 74 36 334 314 341 352 18 49 32 18 43 45 68 109 68 62 125 149 180 184 218 228 149 93 83 46 15 12 27 47 86 87 108 182 166 171 219 195 172 348 358 3 358 7 19 13 16 22 27 34 34 45 73 78 88
84 53 351 321 349 10 27 22 17 13 5 20 57 6 352 342 330 346 36 54 38 55 65 27 18 29 10 19 69 40 357 11 42 52 19 321 291 297 323 20 48 15 3 39 27 53 102 52 16 88 84 139 161 242 280 100 105 136 118 44 350 360 43 72 83 224 154 125 224 263 174 125 8 343 349 341 343 354 6 7 358 356 4 6 16 33 48 59
57 112 285 348 3 358 17 4 352 12 22 25 60 21 2 13 28 6 342 359 26 32 68 37 19 20 346 302 107 60 355 10 32 11 344 348 334 327 344 9 31 15 14 25 6 65 107 76 356 75 39 31 61 22 5 60 65 66 86 61 336 12 52 83 127 270 139 137 207 219 102 91 321 333 339 325 324 344 9 6 354 350 349 0 28 35 29 27
50 66 305 11 67 34 5 312 318 17 25 18 20 22 11 14 22 6 335 347 6 11 58 70 10 5 14 31 98 78 13 35 43 360 346 360 341 352 16 357 344 7 25 28 8 63 104 90 113 109 60 27 32 24 30 70 65 24 14 12 22 68 81 100 105 322 30 135 165 126 96 67 322 310 323 324 329 28 51 32 25 21 3 6 42 42 24 26
56 74 317 19 56 16 350 332 357 39 27 13 17 12 3 6 5 1 17 33 21 354 24 68 18 354 25 44 69 87 72 114 80 4 1 19 351 13 58 8 315 346 9 25 7 21 82 116 158 106 78 9 358 30 51 92 103 78 355 357 39 87 84 71 43 6 47 89 107 101 89 63 352 335 350 358 34 57 54 41 33 27 12 22 47 41 31 40
7 219 50 75 43 0 348 338 19 64 32 9 14 358 356 359 352 360 40 41 48 28 3 9 345 340 27 44 50 58 319 219 215 266 261 195 329 338 359 304 312 341 354 16 4 360 64 123 137 83 99 260 315 95 117 107 104 108 16 1 11 59 95 75 40 19 58 140 131 102 96 100 312 347 31 46 56 59 53 41 37 33 27 39 51 44 39 40
358 279 57 92 77 7 353 346 13 54 65 347 329 338 344 345 352 25 61 19 25 37 8 335 343 19 35 32 25 356 317 265 237 251 242 225 260 279 283 287 276 301 334 10 33 14 71 133 147 108 129 185 278 97 122 101 97 132 270 335 8 80 120 98 47 14 360 134 144 141 158 190 254 22 70 64 59 61 56 42 38 35 34 46 52 49 47 41